GW7277 Weather Reports


time (UTC)temp
C
wind
direction
speed
KPH
gust
KPH
rain 1hr
cm
rain 24hr
cm
rain mn
cm
humidity
%
barometer
mb
20260507214553 28 69 6.4 24.1 0.00 0.00 0.00 72 1014.8
20260507213053 28 69 9.7 20.9 0.00 0.00 0.00 71 1014.6
20260507211553 28 31 8.0 17.7 0.00 0.00 0.00 72 1014.5
20260507210115 28 125 8.0 22.5 0.00 0.00 0.00 71 1014.5
20260507204602 29 95 12.9 22.5 0.00 0.00 0.00 71 1014.5
20260507203058 29 80 9.7 24.1 0.00 0.00 0.00 70 1014.6
20260507201553 29 79 8.0 24.1 0.00 0.00 0.00 72 1014.6
20260507200105 29 39 11.3 25.7 0.00 0.00 0.00 71 1014.7
20260507194553 29 97 11.3 25.7 0.00 0.00 0.00 72 1014.7
20260507193113 30 74 11.3 27.4 0.00 0.00 0.00 69 1014.9
20260507191600 30 58 12.9 22.5 0.00 0.00 0.00 70 1015.0
20260507190054 30 61 9.7 24.1 0.00 0.00 0.00 68 1015.1
20260507184554 30 70 8.0 22.5 0.00 0.00 0.00 68 1015.3
20260507183102 31 40 9.7 22.5 0.00 0.00 0.00 65 1015.3
20260507181554 30 72 8.0 24.1 0.00 0.00 0.00 67 1015.3
20260507180058 30 41 9.7 20.9 0.00 0.00 0.00 67 1015.6
20260507174603 31 79 8.0 22.5 0.00 0.00 0.00 67 1015.9
20260507173134 31 35 4.8 17.7 0.00 0.00 0.00 66 1016.0
20260507171556 31 46 6.4 25.7 0.00 0.00 0.00 67 1016.1
20260507170055 31 84 6.4 19.3 0.00 0.00 0.00 67 1016.4
20260507164606 30 58 11.3 20.9 0.00 0.00 0.00 68 1016.5
20260507163054 30 34 11.3 25.7 0.00 0.00 0.00 68 1016.6
20260507161607 30 54 12.9 27.4 0.00 0.00 0.00 69 1016.7
20260507160119 30 343 8.0 24.1 0.00 0.00 0.00 69 1016.9
20260507154557 30 53 9.7 22.5 0.00 0.00 0.00 69 1017.0
20260507153055 30 72 9.7 20.9 0.00 0.00 0.00 70 1017.2
20260507151559 30 43 9.7 20.9 0.00 0.00 0.00 70 1017.4
20260507150053 30 3 11.3 22.5 0.00 0.00 0.00 70 1017.4
20260507144601 30 28 9.7 24.1 0.00 0.00 0.00 71 1017.5
20260507143100 30 124 6.4 20.9 0.00 0.00 0.00 71 1017.5
20260507141618 29 84 9.7 22.5 0.00 0.00 0.00 72 1017.6
20260507134607 29 91 9.7 20.9 0.00 0.00 0.00 72 1017.8
20260507133054 28 43 9.7 19.3 0.00 0.00 0.00 74 1017.6
20260507131556 29 36 3.2 16.1 0.00 0.00 0.00 73 1017.5
20260507130051 28 41 4.8 12.9 0.00 0.00 0.00 74 1017.4
20260507124552 29 89 8.0 11.3 0.00 0.00 0.00 70 1017.3
20260507123054 29 79 6.4 11.3 0.00 0.00 0.00 71 1017.2
20260507121550 28 51 4.8 9.7 0.00 0.00 0.00 73 1017.1
20260507120054 28 113 4.8 11.3 0.00 0.00 0.00 75 1016.9
20260507114556 28 45 4.8 9.7 0.00 0.00 0.00 74 1016.8
20260507113052 27 136 3.2 8.0 0.00 0.00 0.00 74 1016.6
20260507111559 27 96 3.2 8.0 0.00 0.00 0.00 76 1016.2
20260507110052 27 109 1.6 6.4 0.00 0.00 0.00 76 1016.5
20260507104554 26 143 3.2 8.0 0.00 0.00 0.00 79 1016.4
20260507103056 25 92 0.0 4.8 0.00 0.00 0.00 81 1016.5
20260507101602 25 141 1.6 6.4 0.00 0.00 0.00 81 1016.3
20260507100056 25 120 3.2 11.3 0.00 0.00 0.00 81 1016.2
20260507094552 25 117 1.6 8.0 0.00 0.00 0.00 81 1016.1
20260507093059 25 133 3.2 9.7 0.00 0.00 0.00 81 1016.0
20260507091557 25 119 3.2 8.0 0.00 0.00 0.00 81 1016.1
20260507090057 26 117 3.2 8.0 0.00 0.00 0.00 81 1016.2
20260507084557 26 107 3.2 8.0 0.00 0.00 0.00 80 1016.2
20260507083101 25 119 1.6 4.8 0.00 0.00 0.00 80 1016.1
20260507081602 25 134 1.6 8.0 0.00 0.00 0.00 81 1016.2
20260507074558 26 139 3.2 8.0 0.00 0.00 0.00 81 1016.1
20260507073054 26 169 3.2 8.0 0.00 0.00 0.00 81 1016.0
20260507071551 26 118 3.2 8.0 0.00 0.00 0.00 80 1016.2
20260507070054 26 120 3.2 8.0 0.00 0.00 0.00 81 1016.4
20260507064607 26 113 3.2 8.0 0.00 0.00 0.00 81 1016.5
20260507063056 26 108 3.2 8.0 0.00 0.00 0.00 80 1016.6
20260507061552 26 153 1.6 6.4 0.00 0.00 0.00 80 1016.8
20260507060052 26 113 3.2 9.7 0.00 0.00 0.00 79 1017.0
20260507054604 26 133 3.2 6.4 0.00 0.00 0.00 80 1017.1
20260507053054 26 117 3.2 8.0 0.00 0.00 0.00 79 1017.3
20260507051555 26 101 4.8 9.7 0.00 0.00 0.00 79 1017.5
20260507044555 26 147 8.0 11.3 0.00 0.00 0.00 79 1017.8
20260507043100 26 146 4.8 9.7 0.00 0.00 0.00 79 1018.1
20260507041603 26 92 3.2 9.7 0.00 0.00 0.00 79 1018.4
20260507040058 26 164 4.8 8.0 0.00 0.00 0.00 79 1018.4
20260507034557 26 112 4.8 12.9 0.00 0.00 0.00 79 1018.4
20260507033055 26 124 4.8 9.7 0.00 0.00 0.00 80 1018.6
20260507031553 26 82 4.8 8.0 0.00 0.00 0.00 80 1018.5
20260507030059 27 128 6.4 11.3 0.00 0.00 0.00 79 1018.6
20260507024554 27 145 6.4 12.9 0.00 0.00 0.00 79 1018.7
20260507023109 27 121 4.8 9.7 0.00 0.00 0.00 79 1018.5
20260507021558 27 110 4.8 11.3 0.00 0.00 0.00 79 1018.5
20260507020053 27 91 8.0 14.5 0.00 0.00 0.00 78 1018.3
20260507014606 27 86 4.8 9.7 0.00 0.00 0.00 77 1018.2
20260507013109 27 94 3.2 11.3 0.00 0.00 0.00 75 1018.2
20260507011556 27 91 4.8 9.7 0.00 0.00 0.00 74 1018.1
20260507010058 27 110 4.8 9.7 0.00 0.00 0.00 72 1017.9
20260507004551 27 172 6.4 16.1 0.00 0.00 0.00 73 1017.9
20260507003050 27 151 3.2 11.3 0.00 0.00 0.00 72 1017.7
20260507001609 28 123 4.8 9.7 0.00 0.00 0.00 71 1017.4
20260507000052 28 138 3.2 12.9 0.00 0.00 0.00 69 1017.2
20260506234549 28 158 9.7 20.9 0.00 0.00 0.00 68 1016.9
20260506233057 28 123 6.4 17.7 0.00 0.00 0.00 68 1016.8
20260506231551 28 145 4.8 16.1 0.00 0.00 0.00 68 1016.7
20260506230051 28 150 8.0 17.7 0.00 0.00 0.00 66 1016.5
20260506224552 29 115 6.4 14.5 0.00 0.00 0.00 65 1016.4
20260506223106 29 138 8.0 16.1 0.00 0.00 0.00 64 1015.9
20260506221552 30 217 8.0 17.7 0.00 0.00 0.00 62 1015.8
20260506220056 30 171 8.0 19.3 0.00 0.00 0.00 60 1015.6